When you browse on this site, cookies collect data to enhance your experience and personalize the content and advertising you see.
Visit our Privacy Policy to learn more. By continuing to use the site, you agree to this use of cookies and data.
  • In Czech Republic
  • List of Countries
  • For 7 days
  • Water Temperature
  • Satellite Maps
  • Weather Map
  • Weather Widgets
  • user-avatar
    Login

    Hourly Weather Limassol

    Today, 24 January, Thursday

    Time Temperature Precipitation Wind Pressure Humidity
    00:00 +12°C° 0 mm 9 mps 764 mmHg 74%
    01:00 +12°C° 0 mm 9 mps 763 mmHg 75%
    02:00 +11°C° 0 mm 6 mps 763 mmHg 76%
    03:00 +11°C° 0 mm 7 mps 762 mmHg 77%
    04:00 +11°C° 0 mm 7 mps 762 mmHg 77%
    05:00 +12°C° 0 mm 7 mps 762 mmHg 78%
    06:00 +12°C° 0 mm 7 mps 761 mmHg 77%
    07:00 +12°C° 0 mm 7 mps 761 mmHg 76%
    08:00 +14°C° 0 mm 7 mps 761 mmHg 75%
    09:00 +16°C° 0 mm 6 mps 761 mmHg 69%
    10:00 +17°C° 0 mm 6 mps 761 mmHg 63%
    11:00 +20°C° 0 mm 6 mps 761 mmHg 57%
    12:00 +20°C° 0 mm 6 mps 760 mmHg 56%
    13:00 +19°C° 0 mm 5 mps 760 mmHg 55%
    14:00 +19°C° 0 mm 5 mps 760 mmHg 55%
    15:00 +17°C° 0 mm 6 mps 761 mmHg 59%
    16:00 +16°C° 0 mm 8 mps 761 mmHg 63%
    17:00 +15°C° 0 mm 9 mps 761 mmHg 67%
    18:00 +13°C° 0.1 mm 9 mps 762 mmHg 69%
    19:00 +13°C° 0.1 mm 8 mps 762 mmHg 72%
    20:00 +12°C° 0.1 mm 8 mps 763 mmHg 74%
    21:00 +12°C° 0.1 mm 8 mps 763 mmHg 74%
    22:00 +12°C° 0.1 mm 8 mps 764 mmHg 75%
    23:00 +12°C° 0.1 mm 8 mps 764 mmHg 75%

    Tomorrow, 25 January, Friday

    Time Temperature Precipitation Wind Pressure Humidity
    00:00 +12°C° 0 mm 7 mps 765 mmHg 75%
    01:00 +12°C° 0 mm 7 mps 765 mmHg 75%
    02:00 +13°C° 0 mm 6 mps 765 mmHg 75%
    03:00 +13°C° 0 mm 5 mps 765 mmHg 75%
    04:00 +12°C° 0 mm 4 mps 765 mmHg 75%
    05:00 +12°C° 0 mm 3 mps 765 mmHg 75%
    06:00 +12°C° 0 mm 3 mps 765 mmHg 72%
    07:00 +13°C° 0 mm 3 mps 766 mmHg 70%
    08:00 +14°C° 0 mm 2 mps 766 mmHg 67%
    09:00 +15°C° 0 mm 2 mps 766 mmHg 61%
    10:00 +17°C° 0 mm 3 mps 766 mmHg 55%
    11:00 +18°C° 0 mm 3 mps 767 mmHg 49%
    12:00 +18°C° 0 mm 3 mps 766 mmHg 48%
    13:00 +18°C° 0 mm 3 mps 766 mmHg 47%
    14:00 +18°C° 0 mm 3 mps 765 mmHg 46%
    15:00 +17°C° 0 mm 3 mps 765 mmHg 50%
    16:00 +15°C° 0 mm 4 mps 765 mmHg 55%
    17:00 +15°C° 0 mm 4 mps 764 mmHg 59%
    18:00 +14°C° 0 mm 4 mps 764 mmHg 63%
    19:00 +14°C° 0 mm 4 mps 764 mmHg 66%
    20:00 +13°C° 0 mm 4 mps 764 mmHg 69%
    21:00 +13°C° 0 mm 4 mps 764 mmHg 72%
    22:00 +12°C° 0 mm 4 mps 764 mmHg 74%
    23:00 +12°C° 0 mm 4 mps 764 mmHg 77%

    Day after tomorrow, 26 January, Saturday

    Time Temperature Precipitation Wind Pressure Humidity
    00:00 +12°C° 0 mm 4 mps 764 mmHg 77%
    01:00 +12°C° 0 mm 4 mps 763 mmHg 77%
    02:00 +12°C° 0 mm 4 mps 763 mmHg 77%
    03:00 +12°C° 0 mm 5 mps 763 mmHg 78%
    04:00 +10°C° 0 mm 5 mps 762 mmHg 79%
    05:00 +10°C° 0 mm 5 mps 762 mmHg 80%
    06:00 +12°C° 0 mm 5 mps 762 mmHg 79%
    07:00 +13°C° 0 mm 5 mps 762 mmHg 79%
    08:00 +14°C° 0 mm 6 mps 762 mmHg 78%
    09:00 +15°C° 0 mm 5 mps 762 mmHg 70%
    10:00 +17°C° 0 mm 5 mps 762 mmHg 61%
    11:00 +20°C° 0 mm 4 mps 761 mmHg 53%
    12:00 +20°C° 0 mm 4 mps 761 mmHg 51%
    13:00 +20°C° 0 mm 3 mps 760 mmHg 49%
    14:00 +20°C° 0 mm 3 mps 760 mmHg 47%
    15:00 +19°C° 0 mm 2 mps 760 mmHg 53%
    16:00 +18°C° 0 mm 2 mps 759 mmHg 59%
    17:00 +17°C° 0 mm 2 mps 759 mmHg 65%
    18:00 +16°C° 0 mm 2 mps 760 mmHg 67%
    19:00 +14°C° 0 mm 3 mps 760 mmHg 69%
    20:00 +13°C° 0 mm 4 mps 760 mmHg 71%
    21:00 +13°C° 0 mm 5 mps 761 mmHg 72%
    22:00 +13°C° 0 mm 5 mps 761 mmHg 73%
    23:00 +13°C° 0 mm 6 mps 761 mmHg 74%

    27 January, Sunday

    Time Temperature Precipitation Wind Pressure Humidity
    00:00 +13°C° 0 mm 6 mps 761 mmHg 74%
    01:00 +11°C° 0 mm 6 mps 761 mmHg 73%
    02:00 +11°C° 0 mm 6 mps 761 mmHg 73%
    03:00 +12°C° 0.1 mm 5 mps 761 mmHg 73%
    04:00 +12°C° 0.1 mm 5 mps 761 mmHg 73%
    05:00 +10°C° 0.1 mm 5 mps 761 mmHg 72%
    06:00 +12°C° 0.1 mm 4 mps 761 mmHg 70%
    07:00 +12°C° 0.1 mm 4 mps 762 mmHg 67%
    08:00 +13°C° 0.1 mm 4 mps 762 mmHg 64%
    09:00 +14°C° 0.1 mm 4 mps 762 mmHg 59%
    10:00 +15°C° 0.1 mm 5 mps 762 mmHg 54%
    11:00 +16°C° 0.1 mm 5 mps 762 mmHg 49%
    12:00 +16°C° 0.1 mm 5 mps 762 mmHg 48%
    13:00 +16°C° 0.1 mm 6 mps 761 mmHg 48%
    14:00 +16°C° 0.1 mm 6 mps 761 mmHg 48%
    15:00 +15°C° 0.1 mm 5 mps 761 mmHg 51%
    16:00 +14°C° 0.1 mm 5 mps 761 mmHg 55%
    17:00 +13°C° 0.1 mm 4 mps 761 mmHg 58%
    18:00 +13°C° 0.2 mm 4 mps 761 mmHg 63%
    19:00 +12°C° 0.2 mm 4 mps 762 mmHg 68%
    20:00 +11°C° 0.2 mm 4 mps 762 mmHg 72%
    21:00 +11°C° 0.1 mm 3 mps 762 mmHg 75%
    22:00 +11°C° 0.1 mm 3 mps 762 mmHg 77%
    23:00 +11°C° 0.1 mm 3 mps 762 mmHg 79%

    28 January, Monday

    Time Temperature Precipitation Wind Pressure Humidity
    00:00 +11°C° 0.1 mm 3 mps 762 mmHg 81%
    01:00 +12°C° 0.1 mm 2 mps 762 mmHg 83%
    02:00 +10°C° 0.1 mm 2 mps 762 mmHg 86%
    03:00 +10°C° 0.2 mm 2 mps 762 mmHg 87%
    04:00 +10°C° 0.2 mm 2 mps 762 mmHg 88%
    05:00 +10°C° 0.2 mm 2 mps 762 mmHg 89%
    06:00 +12°C° 0.1 mm 2 mps 762 mmHg 86%
    07:00 +13°C° 0.1 mm 2 mps 762 mmHg 83%
    08:00 +12°C° 0.1 mm 3 mps 762 mmHg 80%
    09:00 +14°C° 0.1 mm 2 mps 762 mmHg 72%
    10:00 +16°C° 0.1 mm 2 mps 762 mmHg 65%
    11:00 +17°C° 0.1 mm 2 mps 763 mmHg 58%
    12:00 +17°C° 0 mm 2 mps 763 mmHg 57%
    13:00 +18°C° 0 mm 1 mps 762 mmHg 56%
    14:00 +18°C° 0 mm 1 mps 762 mmHg 56%
    15:00 +18°C° 0 mm 1 mps 763 mmHg 61%
    16:00 +16°C° 0 mm 1 mps 763 mmHg 66%
    17:00 +16°C° 0 mm 1 mps 764 mmHg 71%
    18:00 +15°C° 0 mm 1 mps 764 mmHg 75%
    19:00 +14°C° 0 mm 1 mps 765 mmHg 79%
    20:00 +13°C° 0 mm 2 mps 766 mmHg 82%
    21:00 +13°C° 0 mm 2 mps 766 mmHg 81%
    22:00 +13°C° 0 mm 2 mps 766 mmHg 79%
    23:00 +12°C° 0 mm 2 mps 767 mmHg 77%

    29 January, Tuesday

    Time Temperature Precipitation Wind Pressure Humidity
    00:00 +12°C° 0 mm 2 mps 767 mmHg 78%
    01:00 +12°C° 0 mm 2 mps 767 mmHg 78%
    02:00 +11°C° 0 mm 3 mps 767 mmHg 79%
    03:00 +11°C° 0 mm 3 mps 767 mmHg 79%
    04:00 +11°C° 0 mm 4 mps 768 mmHg 80%
    05:00 +11°C° 0 mm 4 mps 768 mmHg 80%
    06:00 +12°C° 0 mm 4 mps 768 mmHg 79%
    07:00 +13°C° 0 mm 4 mps 768 mmHg 78%
    08:00 +13°C° 0 mm 5 mps 769 mmHg 77%
    09:00 +15°C° 0 mm 5 mps 769 mmHg 73%
    10:00 +16°C° 0 mm 5 mps 770 mmHg 69%
    11:00 +17°C° 0 mm 5 mps 770 mmHg 65%
    12:00 +17°C° 0 mm 5 mps 770 mmHg 64%
    13:00 +17°C° 0 mm 5 mps 770 mmHg 64%
    14:00 +17°C° 0 mm 5 mps 770 mmHg 64%
    15:00 +17°C° 0 mm 4 mps 770 mmHg 67%
    16:00 +17°C° 0 mm 4 mps 770 mmHg 70%
    17:00 +16°C° 0 mm 3 mps 770 mmHg 73%
    18:00 +14°C° 0 mm 3 mps 770 mmHg 78%
    19:00 +14°C° 0 mm 2 mps 770 mmHg 83%
    20:00 +13°C° 0 mm 1 mps 770 mmHg 88%
    21:00 +12°C° 0 mm 1 mps 770 mmHg 88%
    22:00 +12°C° 0 mm 1 mps 770 mmHg 88%
    23:00 +12°C° 0 mm 1 mps 770 mmHg 88%
    Show more